Find Kosmos-2221

NORAD ID: 22236 Int'l Des: 1992-080 Owner: GRUR Country: RU operational
LEOCIRCULARPOLAR

Live Position

Loading 3D Globe...

About Kosmos-2221

Description loading...

Upcoming Passes

Passes for default location (London). Set your location on the main map for personalized predictions.

Altitude History

Loading altitude history...

Two-Line Element Set

1 22236U 92080A 26106.08686758 .00001047 00000-0 89962-4 0 9997
2 22236 82.5030 243.2481 0015543 69.5909 290.6981 14.96360995786384
Epoch: Apr 16, 2026 • Age: 16 hours

Current Status

Altitude 607.5 km
Velocity 7.55 km/s
Sub-Earth Point -58.97°S, 117.15°E
Launch Date Nov 24, 1992
Age 33.3 years
Type other

Technical Details

Classification Payload
Mass 1750.00 kg
Dry Mass 1750.00 kg
Total Mass 1750.00 kg
Length 3.20 m
Diameter 1.30 m
Span 13.10 m
Shape Cyl + Ant
Manufacturer YUZHUA
Bus Type Tselina-D
Phase Status In Orbit
Owner/State GRUR/RU

Most Searched